STARLINK-11489 [DTC] (62271 NORAD) Tracking and Keplerian Element Data

This shows tracking and keplerian element data for the satellite.

Feedback or suggestion? Click here.




ElementValue
Catalog62271
NameSTARLINK-11489 [DTC]
Epoch Orbit1020
Epoch Day34.11828499
Epoch Year2025
RAAN305.669
Inclination42.999
Eccentricity5.2E-05
Argument of Perigee258.1176
Mean Anonmoly101.9633
Mean Motion15.70830383
Decay Rate7.68E-06
L11 62271U 24237E 25034.11828499 .00000768 00000+0 94707-5 0 9994
L22 62271 42.9990 305.6690 0000520 258.1176 101.9633 15.70830383 10203



Live tracking and technical data element details for STARLINK-11489 [DTC] (NORAD 62271). STARLINK-11489 [DTC] can be tracked NOW for your location showing map with azimuth and elevation plus other details from your city location.







IsCatalogInMostPopularTable: catalog: 62271, numindb: 13
Update: records affected: 1



GetName: 62271 STARLINK-11489 [DTC]

Hit Count: updated at: Sun, 18 May 2025 23:44:35 GMT